Wind_Speed
70 74 71 62 58 55 54 54 53 50 48 50 51 55 49 46 47 46 42 39 36 34 32 33 28 27 25 20 17 11 12 10 13 15 15 13 14 18 19 20 20 22 25 26
80 78 67 63 61 60 57 56 55 50 48 50 49 53 56 46 44 47 43 40 39 38 35 34 31 30 28 23 20 20 17 14 12 13 15 18 18 18 18 20 23 23 23 30
79 74 66 70 65 64 62 59 54 52 46 47 51 53 53 49 44 44 43 41 37 38 34 33 34 30 29 25 24 24 24 20 18 18 16 17 22 23 23 23 23 25 24 26
78 72 74 71 66 63 65 57 58 54 51 50 51 56 53 49 44 42 38 36 41 38 30 32 34 36 30 26 26 27 26 24 24 23 23 21 21 23 27 29 25 25 24 24
79 74 76 79 70 63 63 58 59 56 54 55 51 58 49 51 48 40 38 30 31 31 33 34 34 36 32 28 27 29 28 28 29 27 27 27 25 26 25 29 29 26 26 27
76 72 75 76 68 64 60 62 58 57 58 63 56 55 57 52 49 42 40 34 30 28 33 35 36 34 33 28 28 32 32 31 31 30 29 30 29 28 29 30 29 29 28 28
78 77 73 74 76 69 64 65 63 65 67 69 60 60 64 55 48 43 39 33 32 35 37 37 33 32 31 29 29 34 33 34 33 32 33 34 32 34 34 34 31 31 29 29
77 80 79 76 76 72 71 67 69 71 72 70 65 71 62 53 47 43 39 41 40 40 41 37 33 32 31 28 29 34 35 33 31 34 36 37 37 37 37 38 37 34 34 30
76 80 73 72 69 68 70 73 70 69 71 69 70 65 61 54 52 45 46 41 42 42 42 38 35 38 37 30 30 35 36 32 33 35 36 39 40 40 40 40 39 39 37 36
69 73 73 71 66 64 69 65 67 70 73 72 81 78 69 56 50 50 50 47 44 39 39 39 37 33 32 33 34 34 36 34 36 36 38 39 41 42 42 42 42 43 42 41
62 65 69 70 72 72 69 69 65 67 69 72 73 75 65 61 55 52 51 47 39 36 40 42 41 41 39 33 31 35 36 38 37 37 38 40 43 43 43 44 43 44 44 46
53 60 70 68 65 68 71 66 65 67 69 73 72 79 68 62 59 55 51 49 43 34 36 37 39 40 37 33 33 31 36 37 37 38 41 42 43 43 43 43 44 46 44 47
43 61 61 64 62 66 69 72 76 68 65 71 74 79 66 61 58 59 55 53 49 41 40 47 46 42 41 42 35 41 43 41 40 41 42 43 44 44 44 44 48 47 48 51
36 49 60 64 66 63 65 66 69 72 76 78 75 78 74 67 61 55 40 33 48 52 46 45 48 48 47 45 47 49 47 42 42 44 44 44 44 44 45 48 49 50 52 55
56 49 46 54 58 63 65 67 68 66 69 74 71 77 75 71 69 56 53 52 51 53 54 56 55 52 52 51 49 49 50 45 46 48 47 45 45 46 47 48 50 52 56 60
41 55 54 53 62 43 58 68 71 73 72 68 70 76 68 65 65 67 67 55 55 55 55 53 54 57 61 61 57 53 51 45 46 48 50 48 47 47 47 49 55 61 60 54
56 59 61 75 60 61 57 57 68 72 75 73 72 69 65 67 67 63 61 64 60 52 52 54 57 59 60 61 57 56 54 44 42 46 48 48 49 52 57 61 61 58 54 48
55 57 63 67 74 80 64 64 62 68 73 71 71 69 67 66 65 63 62 61 58 55 58 59 58 58 60 59 60 59 60 55 45 45 56 58 59 55 58 58 56 54 49 50
58 59 60 66 70 72 84 68 64 69 66 71 73 70 68 66 66 69 66 62 56 55 57 55 61 69 77 77 75 70 68 61 52 54 54 56 54 58 58 59 53 49 51 54
63 64 66 68 71 75 71 74 68 61 77 55 65 68 64 67 72 76 68 65 58 54 56 58 62 68 61 60 62 64 65 66 59 58 56 58 60 59 56 52 51 52 56 56
60 64 64 64 65 74 75 72 71 74 67 42 44 53 58 65 68 75 66 64 63 62 59 57 61 66 64 62 65 66 66 63 61 60 61 61 61 55 55 54 55 56 57 55
56 63 60 60 63 70 65 75 78 75 68 66 41 51 56 51 46 53 54 51 52 54 57 56 60 62 61 61 62 66 65 61 59 61 63 64 59 61 59 59 60 61 59 56
52 56 58 62 66 58 54 72 75 78 75 71 51 49 48 57 61 60 62 53 50 50 55 60 58 58 58 58 58 53 51 55 60 64 67 67 65 62 63 65 65 65 60 53
47 38 53 57 57 48 45 59 67 61 81 79 62 59 54 50 54 56 60 61 59 55 51 54 58 61 61 60 57 53 54 59 63 67 68 67 66 66 68 68 66 64 62 58
40 50 46 49 48 46 47 49 55 58 62 84 66 64 58 49 50 54 56 60 60 59 53 53 56 57 59 61 58 61 62 64 67 66 68 68 69 70 71 68 67 65 61 58
42 46 56 57 49 50 43 45 60 61 65 78 74 65 64 59 53 46 48 58 64 61 60 59 58 62 62 63 65 67 66 68 70 70 71 71 74 70 69 65 63 60 56 49
Wind_Direction
230 229 229 233 235 237 238 237 235 232 230 234 231 236 232 231 237 241 243 247 250 256 259 255 249 250 254 257 255 274 292 314 325 331 335 333 318 309 305 296 291 290 284 277
228 231 233 232 231 234 235 238 238 233 235 238 235 236 241 231 238 243 247 247 248 251 251 252 247 244 250 253 253 262 273 286 300 307 325 326 328 327 316 301 293 287 284 281
227 232 231 232 230 232 234 237 239 242 238 237 239 237 241 242 237 243 248 251 249 247 249 250 252 248 249 252 258 255 266 277 288 295 305 316 326 334 332 321 306 288 280 278
231 225 227 231 229 232 236 238 240 240 241 242 240 242 238 242 239 243 252 245 247 246 248 238 243 250 248 250 257 257 263 274 281 289 296 307 321 331 331 332 318 303 283 278
229 227 228 231 233 232 234 235 241 242 242 241 235 246 240 245 244 241 246 244 243 246 247 242 238 243 247 250 255 260 268 273 280 287 293 303 316 323 323 324 324 315 301 282
229 230 229 230 229 232 231 233 237 239 239 242 237 243 243 242 248 242 243 243 244 247 248 244 241 241 245 248 253 261 268 274 278 287 293 296 304 309 313 317 318 320 315 294
228 229 230 228 229 228 226 231 234 238 238 241 238 240 245 244 248 252 253 251 247 244 239 240 241 248 245 247 250 259 266 271 277 284 287 289 295 300 306 312 315 320 320 310
229 228 228 228 229 232 232 232 235 237 240 243 243 242 239 245 248 252 254 253 245 241 243 241 237 245 244 242 249 259 263 268 275 279 282 288 292 294 298 303 311 318 322 315
230 230 229 231 233 232 230 232 238 240 243 242 242 241 245 243 244 249 252 252 250 245 243 242 241 243 243 247 247 257 264 270 271 273 277 282 287 290 293 297 305 310 317 317
231 236 232 231 230 229 232 235 234 235 238 241 244 242 243 243 246 249 252 256 253 254 248 240 242 242 239 244 249 257 264 267 268 272 276 280 284 287 290 294 298 304 306 315
231 235 230 229 227 229 230 228 231 236 241 244 247 246 243 242 246 249 251 257 264 258 252 247 244 246 247 251 253 264 266 264 265 268 274 278 281 284 289 290 294 301 303 310
230 235 235 236 230 231 231 235 234 233 235 241 244 241 239 240 240 246 250 256 257 246 257 256 259 261 262 259 275 256 258 263 268 272 273 274 277 282 284 285 291 296 297 306
224 232 236 233 229 229 230 232 233 231 234 239 244 248 243 245 244 248 248 248 251 253 252 258 264 266 270 270 256 261 265 269 271 271 272 275 278 281 283 285 290 291 291 301
240 225 230 237 238 237 235 235 237 239 235 235 237 241 241 235 237 243 239 232 237 242 251 257 259 262 260 257 264 269 270 273 274 274 275 276 277 278 279 282 285 286 288 298
235 236 229 232 234 230 227 233 236 231 238 243 244 244 246 246 238 238 244 243 248 250 253 256 258 257 258 262 264 267 273 277 277 276 277 276 277 279 280 282 284 286 290 297
227 234 234 230 222 224 238 225 232 235 238 233 241 246 240 244 248 245 239 240 241 245 252 257 259 260 262 266 268 270 270 269 272 275 276 277 278 279 282 284 286 290 294 290
241 239 236 232 230 241 238 221 224 230 233 236 234 243 244 245 247 246 244 244 247 247 246 246 252 259 264 267 270 271 272 269 270 271 275 278 281 282 286 287 288 290 289 286
237 240 237 235 236 242 233 225 231 231 228 231 237 242 246 247 246 246 247 246 243 244 247 248 249 253 258 264 269 270 272 273 269 269 275 277 280 280 285 290 289 287 286 289
239 240 244 249 245 245 229 228 231 235 235 229 229 236 241 242 249 247 246 247 245 244 240 248 252 255 258 258 264 268 272 274 272 274 272 276 279 284 287 289 285 285 289 291
240 243 247 248 252 253 229 229 236 233 236 217 231 234 238 245 243 246 250 250 249 250 252 250 242 252 262 265 269 271 273 274 277 278 277 280 283 282 282 281 284 288 290 290
240 238 247 248 251 256 236 228 240 251 240 221 235 231 233 233 237 248 248 248 247 248 248 248 246 248 256 258 262 265 267 271 275 275 277 278 276 275 279 279 283 287 289 288
244 244 248 252 253 256 247 232 250 247 242 223 225 230 229 229 232 237 239 244 250 251 252 251 250 252 254 255 255 258 262 266 267 271 274 275 276 281 282 284 287 289 288 285
248 244 253 254 258 260 248 241 252 249 243 226 235 237 238 231 231 240 245 242 245 245 244 244 243 246 249 250 250 254 255 259 263 268 270 272 276 277 281 282 285 287 285 282
251 250 254 250 249 263 261 241 247 258 251 237 236 234 237 235 229 231 235 239 240 243 246 248 245 244 248 251 252 252 255 257 260 264 267 269 271 276 282 282 283 284 281 277
252 247 255 256 259 265 265 259 245 247 254 245 230 225 230 232 231 234 236 241 245 247 247 247 250 250 250 254 256 260 261 263 267 268 268 269 273 279 280 280 281 280 277 275
259 256 255 260 266 260 257 253 248 250 246 236 225 226 226 232 235 233 239 239 241 244 248 249 250 252 254 256 257 259 264 267 268 268 268 272 277 276 278 278 277 276 277 270
Height
5768 5764 5777 5796 5802 5807 5811 5814 5818 5825 5827 5825 5832 5830 5839 5845 5844 5848 5855 5859 5862 5865 5866 5866 5869 5870 5870 5874 5875 5876 5875 5873 5872 5870 5869 5869 5868 5866 5864 5862 5861 5858 5854 5854
5744 5752 5780 5784 5788 5793 5798 5803 5809 5816 5819 5816 5821 5822 5823 5836 5839 5839 5845 5849 5853 5856 5857 5858 5861 5863 5864 5867 5869 5870 5871 5870 5869 5867 5865 5863 5862 5861 5859 5857 5855 5854 5851 5847
5734 5760 5768 5765 5774 5780 5786 5793 5803 5806 5809 5808 5808 5811 5816 5825 5832 5832 5835 5839 5844 5847 5850 5852 5853 5855 5857 5860 5862 5863 5864 5863 5863 5862 5861 5859 5855 5853 5851 5849 5849 5848 5846 5841
5722 5743 5746 5748 5760 5771 5775 5790 5789 5793 5796 5800 5795 5798 5804 5814 5823 5826 5829 5832 5833 5837 5842 5845 5846 5846 5851 5853 5853 5853 5855 5856 5857 5856 5855 5853 5851 5847 5843 5842 5840 5839 5838 5836
5710 5729 5732 5733 5754 5760 5769 5775 5775 5780 5784 5784 5789 5786 5804 5803 5809 5818 5821 5824 5825 5830 5833 5835 5837 5838 5842 5846 5846 5844 5846 5848 5848 5848 5846 5844 5842 5841 5840 5837 5834 5831 5829 5829
5700 5712 5713 5727 5748 5746 5761 5757 5759 5762 5766 5761 5782 5779 5788 5794 5799 5808 5812 5815 5818 5821 5824 5825 5828 5831 5835 5837 5837 5836 5837 5839 5839 5838 5837 5836 5835 5835 5834 5832 5830 5826 5822 5821
5688 5693 5706 5717 5722 5727 5736 5740 5743 5744 5743 5750 5772 5767 5773 5782 5790 5798 5803 5807 5810 5811 5812 5815 5820 5824 5826 5827 5828 5827 5828 5830 5830 5829 5828 5828 5828 5827 5826 5824 5822 5819 5816 5812
5667 5673 5685 5701 5709 5721 5729 5730 5728 5726 5732 5744 5750 5747 5763 5777 5782 5787 5794 5795 5797 5800 5804 5809 5813 5815 5817 5818 5819 5819 5821 5822 5822 5821 5819 5818 5818 5818 5818 5816 5813 5811 5808 5804
5655 5656 5677 5690 5703 5705 5715 5705 5724 5721 5723 5725 5732 5746 5755 5767 5771 5780 5782 5785 5789 5791 5794 5800 5804 5806 5808 5810 5812 5812 5812 5814 5814 5814 5813 5812 5810 5810 5809 5807 5804 5802 5798 5796
5645 5649 5664 5680 5682 5685 5691 5711 5703 5696 5702 5707 5717 5731 5738 5757 5766 5767 5769 5772 5778 5782 5785 5789 5792 5796 5799 5801 5802 5802 5802 5805 5805 5805 5804 5804 5803 5801 5799 5797 5795 5793 5790 5788
5632 5632 5647 5651 5656 5672 5679 5679 5683 5690 5693 5697 5707 5710 5735 5746 5753 5757 5760 5764 5764 5771 5776 5779 5781 5783 5788 5790 5791 5793 5793 5794 5795 5796 5795 5794 5793 5792 5790 5788 5786 5783 5780 5777
5619 5620 5624 5633 5655 5658 5662 5666 5676 5672 5680 5681 5689 5693 5718 5732 5741 5745 5749 5751 5755 5760 5764 5769 5772 5775 5778 5781 5782 5782 5783 5784 5785 5785 5785 5785 5783 5781 5780 5778 5775 5773 5770 5767
5609 5600 5610 5617 5628 5634 5635 5648 5653 5660 5669 5668 5674 5683 5715 5723 5730 5732 5738 5744 5743 5746 5751 5755 5760 5763 5767 5769 5772 5770 5771 5774 5775 5775 5774 5773 5772 5771 5769 5766 5763 5761 5759 5756
5591 5590 5594 5603 5623 5634 5628 5636 5642 5645 5645 5655 5656 5674 5690 5703 5712 5720 5726 5730 5734 5738 5740 5744 5748 5751 5754 5756 5758 5758 5760 5764 5764 5762 5762 5762 5761 5759 5757 5755 5752 5750 5747 5744
5574 5576 5582 5592 5596 5602 5610 5617 5624 5625 5634 5636 5653 5660 5678 5687 5701 5709 5715 5719 5723 5725 5728 5731 5734 5736 5739 5742 5745 5747 5747 5750 5749 5748 5748 5748 5747 5746 5744 5742 5739 5736 5734 5731
5561 5561 5564 5571 5582 5587 5592 5599 5604 5608 5618 5624 5634 5642 5666 5673 5681 5692 5702 5706 5707 5709 5713 5717 5719 5721 5723 5725 5730 5732 5734 5737 5735 5733 5733 5732 5732 5732 5730 5728 5726 5722 5719 5716
5550 5550 5550 5553 5562 5564 5564 5582 5588 5598 5603 5610 5613 5633 5654 5659 5662 5668 5679 5688 5694 5697 5700 5704 5705 5707 5708 5710 5713 5715 5716 5722 5723 5720 5719 5719 5717 5716 5715 5712 5709 5706 5704 5702
5535 5539 5542 5543 5545 5535 5559 5568 5574 5580 5590 5597 5603 5620 5636 5646 5651 5654 5662 5670 5679 5682 5684 5688 5693 5694 5696 5697 5697 5697 5698 5705 5710 5708 5705 5704 5702 5700 5698 5695 5692 5689 5688 5686
5525 5529 5529 5527 5530 5533 5543 5555 5569 5572 5577 5586 5590 5602 5615 5628 5631 5631 5642 5652 5662 5667 5671 5672 5672 5673 5677 5682 5683 5683 5682 5685 5690 5692 5690 5688 5686 5683 5680 5679 5677 5675 5674 5672
5516 5517 5517 5516 5512 5511 5537 5554 5557 5559 5540 5574 5581 5588 5599 5612 5602 5620 5633 5635 5643 5652 5656 5660 5657 5657 5664 5666 5668 5667 5668 5669 5670 5670 5671 5670 5669 5667 5666 5664 5662 5661 5659 5656
5498 5499 5498 5502 5499 5499 5528 5541 5541 5520 5538 5575 5571 5572 5579 5582 5588 5608 5605 5613 5620 5625 5632 5638 5640 5643 5648 5653 5652 5651 5652 5653 5654 5653 5653 5653 5652 5651 5651 5649 5646 5645 5643 5640
5481 5484 5486 5490 5486 5483 5517 5527 5511 5524 5536 5548 5549 5555 5558 5567 5577 5584 5582 5591 5600 5608 5615 5620 5625 5627 5630 5634 5636 5637 5637 5638 5637 5637 5636 5635 5635 5633 5632 5631 5629 5627 5626 5623
5467 5472 5480 5479 5479 5488 5496 5499 5500 5506 5513 5527 5536 5542 5544 5551 5559 5572 5571 5575 5582 5590 5595 5601 5606 5610 5613 5616 5618 5620 5621 5621 5622 5621 5619 5618 5619 5618 5616 5615 5613 5611 5609 5608
5461 5465 5460 5465 5469 5476 5479 5487 5487 5486 5491 5507 5517 5524 5526 5534 5548 5555 5560 5561 5566 5574 5579 5584 5588 5591 5595 5598 5601 5603 5604 5606 5606 5605 5605 5604 5603 5602 5600 5599 5597 5594 5592 5591
5451 5450 5454 5452 5460 5464 5465 5471 5477 5477 5474 5484 5503 5509 5514 5522 5534 5541 5546 5550 5553 5557 5563 5568 5571 5575 5578 5581 5585 5586 5587 5588 5588 5588 5588 5587 5586 5585 5584 5582 5580 5578 5576 5575
5445 5444 5435 5437 5448 5442 5447 5454 5455 5455 5459 5465 5482 5493 5504 5510 5521 5527 5532 5536 5538 5541 5547 5551 5555 5557 5561 5564 5566 5569 5571 5571 5571 5569 5569 5570 5570 5569 5568 5566 5563 5563 5562 5560